Regional Weather Roundup
Issued by NWS

Home | Current Version | Previous Version | Graphics & Text | Print | Product List | Glossary On
Versions: 1 2 3 4 5 6 7 8 9 10 11 12 13 14 15 16 17 18 19 20 21 22 23 24 25 26 27 28 29 30 31 32 33 34 35 36 37 38 39 40 41 42 43 44 45 46 47 48 49 50
000
ASUS45 KBOI 270110
RWRID
WEATHER ROUNDUP FOR IDAHO
NATIONAL WEATHER SERVICE BOISE ID
600 PM MST MON JAN 26 2015

NOTE: "FAIR" INDICATES FEW OR NO CLOUDS BELOW 12000 FEET
WITH NO SIGNIFICANT WEATHER AND/OR OBSTRUCTIONS TO VISIBILITY

IDZ012-014-270200-
SOUTHWEST IDAHO


CITY           SKY/WX    TMP DP  RH WIND       PRES   REMARKS
BOISE          MOCLDY    41  34  76 NE3       30.17F
CALDWELL       MOCLDY    39  30  70 W7        30.20F WCI  34
MOUNTAIN HOME  PTCLDY    44  38  77 N9        30.15F
$$

IDZ016-017-270200-
SOUTHCENTRAL IDAHO


CITY           SKY/WX    TMP DP  RH WIND       PRES   REMARKS
BURLEY         CLEAR     43  35  73 NE15      30.15F
JEROME         CLEAR     40  33  76 NE18      30.14F WCI  31
TWIN FALLS     CLEAR     44  36  73 NE13      30.14F
$$

IDZ019>023-270200-
SOUTHEAST IDAHO


CITY           SKY/WX    TMP DP  RH WIND       PRES   REMARKS
IDAHO FALLS    PTCLDY    36  31  82 N10       30.23F WCI  28
POCATELLO      CLEAR     38  34  85 NE9       30.22S WCI  31
REXBURG        PTCLDY    32  29  88 NE3       30.24F
$$

IDZ006-010-011-018-031-032-270200-
CENTRAL IDAHO MOUNTAINS


CITY           SKY/WX    TMP DP  RH WIND       PRES   REMARKS
MCCALL         PTCLDY    39  30  70 CALM      30.14F
HAILEY         PTCLDY    45  32  61 W7        30.19F
STANLEY          N/A     29  21  72 CALM      30.22F
SALMON         CLOUDY   N/A N/A N/A N3        30.23S VSB<1/4
CHALLIS        MOCLDY    37  29  72 N5        30.21S WCI  33
$$

IDZ002-004-006-007-026-270200-
NORTHERN IDAHO


CITY           SKY/WX    TMP DP  RH WIND       PRES   REMARKS
LEWISTON       MOCLDY    57  38  48 SW14      30.00S
LOWELL           N/A     38  36  92 N6        30.11R WCI  33
COEUR D`ALENE  PTCLDY    39  36  87 NE9       30.01R WCI  33
MULLAN PASS    MOCLDY    46  26  45 W13G20    30.08F
$$


USA.gov is the U.S. government's official web portal to all federal, state and local government web resources and services.